Showing default

YUNHAI 2-2E, 59284

Orbit data source: Space-Track

YUNHAI 2-2E, 59284 is a payload satellite owned by CASC (CN) in LEO that was launched on Thu, 21 Mar 2024 UTC via a CHANG ZHENG 2D/YZ-3 launch vehicle from the Jiuquan Satellite Launch Center, China (JSC). Payload-class satellites include a variety of spacecraft equipped with specific instruments for various scientific and technological missions. These include communications satellites like Starlink; space stations such as the ISS; scientific satellites like the Hubble; Earth observation satellites from companies like Planet Labs, Umbra, and HawkEye 360; GPS; miniature CubeSats for education and research; and military/defense satellites.

Loading next visibility...
Identifier
59284, 2024-052E
Orbit
LEO
Country
Flag of CNCN / PRC
Related business
Manufacturer
DFH Shenzhen
Mission
Operational Defense Meteo Radio Occ.
Bus & Motor
YH-2, Unknown motor
Mass
~100 kg wet, ~100 kg dry
Launch date (UTC)
2024-03-21 (2 years ago)
Launch vehicle
CHANG ZHENG 2D/YZ-3
Launch site
Jiuquan Satellite Launch Center, China (JSC)
Object type
Payload
Rocket body
Debris
Shape & HBR
Box + 2 Pan, 0.5 m
Radar Cross Section
0.166 m², Large (>1 m²)

Expand to show TLE details & history
Last TLE update: 22 hours ago

TLE from 22 hours ago
0 YUNHAI 2-2E
1 59284U 24052E   26172.53592920  .00000041  00000-0  80982-4 0  9990
2 59284  50.0115 304.3609 0011806  74.6808 285.5411 14.27966019107555
Epoch: 2026-06-21T12:51Z
TLE epoch observation values (Epoch: 2026-06-21T12:51:44.282Z)
Latitude
-0.00003°
Longitude
-158.30843°
Altitude
796.809 km
Speed
7.458 km/s
True Right ascension
20h 17m 26s
True Declination
0° 00' 00"
Sunlit
Object was in full shadow at epoch
Visualization orbit readout
Latitude
Unknown
Longitude
Unknown
Altitude
Unknown
Speed
Unknown
Apparent Right ascension
Unknown
Apparent Declination
Unknown
Sunlit
N/A
Visualization observer readout
Local Sidereal Time
21:30:53
Azimuth
Unknown
Elevation
Unknown
Doppler factor
Unknown
Orbital elements
Apogee altitude
807.749 km
Perigee altitude
790.802 km
Semi-major axis
7,177.412 km
Eccentricity
0.00118
Inclination
50.0115°
RAAN
304.3609°
Arg. of periapsis
74.6808°
True anomaly
285.41071°
Mean anomaly
285.5411°
Eccentric anomaly
285.47591°
Mean motion
3.56937 °/min
Orbital period
100.86 mins
BSTAR
0.000080982
Loading maneuver chart data...
Computing Atmospheric mass density...
Loading historical data...
Loading historical data...
Loading historical data...
Loading historical data...
Loading historical data...
Loading historical data...
Loading historical data...

Documentation

Showing up to 5 results
|